Previsão horária em Jutaí

Hoje, 18 Junho, Sexta-feira

Tempo Temperatura Precipitação Vento Pressão Humidade
00:00 +21°C° 0 mm 0 m/s 751 mmHg 98%
01:00 +23°C° 0 mm 1 m/s 751 mmHg 99%
02:00 +23°C° 0 mm 1 m/s 751 mmHg 99%
03:00 +23°C° 0 mm 1 m/s 751 mmHg 99%
04:00 +23°C° 0 mm 1 m/s 751 mmHg 99%
05:00 +23°C° 0 mm 1 m/s 751 mmHg 98%
06:00 +24°C° 0 mm 1 m/s 752 mmHg 97%
07:00 +24°C° 0 mm 1 m/s 752 mmHg 96%
08:00 +26°C° 0.2 mm 1 m/s 752 mmHg 87%
09:00 +28°C° 0.2 mm 1 m/s 752 mmHg 77%
10:00 +30°C° 0.2 mm 1 m/s 753 mmHg 68%
11:00 +31°C° 0.8 mm 1 m/s 752 mmHg 69%
12:00 +31°C° 0.8 mm 1 m/s 751 mmHg 71%
13:00 +31°C° 0.8 mm 1 m/s 750 mmHg 72%
14:00 +30°C° 1 mm 1 m/s 750 mmHg 79%
15:00 +29°C° 1 mm 1 m/s 749 mmHg 85%
16:00 +28°C° 1 mm 1 m/s 749 mmHg 92%
17:00 +27°C° 0.8 mm 1 m/s 749 mmHg 94%
18:00 +24°C° 0.8 mm 0 m/s 750 mmHg 95%
19:00 +22°C° 0.8 mm 0 m/s 750 mmHg 97%
20:00 +22°C° 0.3 mm 0 m/s 751 mmHg 98%
21:00 +24°C° 0.3 mm 1 m/s 751 mmHg 98%
22:00 +24°C° 0.3 mm 1 m/s 751 mmHg 98%
23:00 +24°C° 0 mm 1 m/s 751 mmHg 98%

Amanhã, 19 Junho, Sábado

Tempo Temperatura Precipitação Vento Pressão Humidade
00:00 +21°C° 0 mm 0 m/s 751 mmHg 98%
01:00 +21°C° 0 mm 0 m/s 751 mmHg 98%
02:00 +21°C° 0.2 mm 0 m/s 751 mmHg 99%
03:00 +23°C° 0.2 mm 1 m/s 751 mmHg 99%
04:00 +23°C° 0.2 mm 1 m/s 751 mmHg 99%
05:00 +21°C° 0 mm 0 m/s 751 mmHg 98%
06:00 +22°C° 0 mm 0 m/s 752 mmHg 97%
07:00 +22°C° 0 mm 0 m/s 752 mmHg 96%
08:00 +27°C° 0 mm 1 m/s 752 mmHg 83%
09:00 +30°C° 0 mm 1 m/s 752 mmHg 70%
10:00 +32°C° 0 mm 1 m/s 752 mmHg 57%
11:00 +33°C° 0 mm 1 m/s 751 mmHg 52%
12:00 +34°C° 0 mm 1 m/s 750 mmHg 48%
13:00 +35°C° 0 mm 1 m/s 749 mmHg 43%
14:00 +33°C° 0 mm 1 m/s 749 mmHg 54%
15:00 +31°C° 0 mm 1 m/s 749 mmHg 64%
16:00 +29°C° 0 mm 1 m/s 749 mmHg 74%
17:00 +26°C° 0.4 mm 0 m/s 749 mmHg 79%
18:00 +25°C° 0.4 mm 0 m/s 750 mmHg 83%
19:00 +24°C° 0.4 mm 0 m/s 750 mmHg 88%
20:00 +24°C° 0.9 mm 0 m/s 751 mmHg 91%
21:00 +23°C° 0.9 mm 0 m/s 751 mmHg 94%
22:00 +22°C° 0.9 mm 0 m/s 751 mmHg 97%
23:00 +22°C° 1.5 mm 0 m/s 751 mmHg 97%

Depois de amanhã, 20 Junho, Domingo

Tempo Temperatura Precipitação Vento Pressão Humidade
00:00 +22°C° 1.5 mm 0 m/s 751 mmHg 98%
01:00 +21°C° 1.5 mm 0 m/s 751 mmHg 99%
02:00 +21°C° 1.3 mm 0 m/s 751 mmHg 99%
03:00 +21°C° 1.3 mm 0 m/s 751 mmHg 99%
04:00 +21°C° 1.3 mm 0 m/s 751 mmHg 99%
05:00 +21°C° 1 mm 0 m/s 751 mmHg 99%
06:00 +22°C° 1 mm 0 m/s 752 mmHg 98%
07:00 +22°C° 1 mm 0 m/s 752 mmHg 98%
08:00 +24°C° 0.4 mm 0 m/s 752 mmHg 92%
09:00 +26°C° 0.4 mm 0 m/s 753 mmHg 86%
10:00 +28°C° 0.4 mm 0 m/s 753 mmHg 80%
11:00 +29°C° 0.5 mm 0 m/s 752 mmHg 73%
12:00 +31°C° 0.5 mm 1 m/s 751 mmHg 67%
13:00 +32°C° 0.5 mm 1 m/s 750 mmHg 60%
14:00 +31°C° 0.6 mm 1 m/s 750 mmHg 68%
15:00 +30°C° 0.6 mm 1 m/s 749 mmHg 77%
16:00 +29°C° 0.6 mm 1 m/s 749 mmHg 85%
17:00 +26°C° 0.6 mm 0 m/s 750 mmHg 89%
18:00 +24°C° 0.6 mm 0 m/s 750 mmHg 93%
19:00 +23°C° 0.6 mm 0 m/s 751 mmHg 97%
20:00 +23°C° 0.1 mm 0 m/s 751 mmHg 98%
21:00 +22°C° 0.1 mm 0 m/s 751 mmHg 98%
22:00 +22°C° 0.1 mm 0 m/s 751 mmHg 98%
23:00 +22°C° 0 mm 0 m/s 751 mmHg 98%

21 Junho, Segunda-feira

Tempo Temperatura Precipitação Vento Pressão Humidade
00:00 +22°C° 0 mm 0 m/s 751 mmHg 98%
01:00 +22°C° 0 mm 0 m/s 751 mmHg 99%
02:00 +21°C° 0 mm 0 m/s 751 mmHg 99%
03:00 +21°C° 0 mm 0 m/s 751 mmHg 99%
04:00 +21°C° 0 mm 0 m/s 751 mmHg 99%
05:00 +22°C° 0.5 mm 0 m/s 751 mmHg 98%
06:00 +22°C° 0.5 mm 0 m/s 752 mmHg 98%
07:00 +22°C° 0.5 mm 0 m/s 752 mmHg 98%
08:00 +24°C° 0.3 mm 0 m/s 752 mmHg 92%
09:00 +25°C° 0.3 mm 0 m/s 752 mmHg 86%
10:00 +29°C° 0.3 mm 1 m/s 753 mmHg 81%
11:00 +29°C° 1.2 mm 1 m/s 752 mmHg 78%
12:00 +30°C° 1.2 mm 1 m/s 751 mmHg 76%
13:00 +28°C° 1.2 mm 0 m/s 750 mmHg 74%
14:00 +28°C° 0.6 mm 0 m/s 750 mmHg 76%
15:00 +28°C° 0.6 mm 0 m/s 749 mmHg 78%
16:00 +28°C° 0.6 mm 0 m/s 749 mmHg 80%
17:00 +26°C° 0.2 mm 0 m/s 749 mmHg 85%
18:00 +24°C° 0.2 mm 0 m/s 749 mmHg 90%
19:00 +23°C° 0.2 mm 0 m/s 750 mmHg 96%
20:00 +23°C° 0 mm 0 m/s 750 mmHg 96%
21:00 +24°C° 0 mm 1 m/s 750 mmHg 97%
22:00 +24°C° 0 mm 1 m/s 750 mmHg 97%
23:00 +24°C° 0 mm 1 m/s 750 mmHg 97%

22 Junho, Terça-feira

Tempo Temperatura Precipitação Vento Pressão Humidade
00:00 +22°C° 0 mm 0 m/s 750 mmHg 98%
01:00 +22°C° 0 mm 0 m/s 750 mmHg 98%
02:00 +22°C° 0 mm 0 m/s 750 mmHg 98%
03:00 +22°C° 0 mm 0 m/s 750 mmHg 97%
04:00 +22°C° 0 mm 0 m/s 750 mmHg 97%
05:00 +22°C° 0.5 mm 0 m/s 751 mmHg 97%
06:00 +22°C° 0.5 mm 0 m/s 751 mmHg 96%
07:00 +23°C° 0.5 mm 0 m/s 752 mmHg 96%
08:00 +24°C° 1.1 mm 0 m/s 752 mmHg 91%
09:00 +26°C° 1.1 mm 0 m/s 752 mmHg 87%
10:00 +27°C° 1.1 mm 0 m/s 752 mmHg 82%
11:00 +27°C° 1.6 mm 0 m/s 751 mmHg 82%
12:00 +27°C° 1.6 mm 0 m/s 751 mmHg 83%
13:00 +27°C° 1.6 mm 0 m/s 750 mmHg 83%
14:00 +27°C° 0.8 mm 0 m/s 750 mmHg 84%
15:00 +27°C° 0.8 mm 0 m/s 749 mmHg 84%
16:00 +27°C° 0.8 mm 0 m/s 749 mmHg 85%
17:00 +25°C° 0 mm 0 m/s 749 mmHg 88%
18:00 +24°C° 0 mm 0 m/s 749 mmHg 92%
19:00 +23°C° 0 mm 0 m/s 750 mmHg 96%
20:00 +23°C° 0 mm 0 m/s 750 mmHg 96%
21:00 +22°C° 0 mm 0 m/s 750 mmHg 96%
22:00 +22°C° 0 mm 0 m/s 751 mmHg 97%
23:00 +22°C° 0.1 mm 0 m/s 750 mmHg 97%

23 Junho, Quarta-feira

Tempo Temperatura Precipitação Vento Pressão Humidade
00:00 +22°C° 0.1 mm 0 m/s 750 mmHg 97%
01:00 +21°C° 0.1 mm 0 m/s 750 mmHg 98%
02:00 +21°C° 0.3 mm 0 m/s 750 mmHg 98%
03:00 +21°C° 0.3 mm 0 m/s 750 mmHg 98%
04:00 +21°C° 0.3 mm 0 m/s 750 mmHg 98%
05:00 +21°C° 0.2 mm 0 m/s 750 mmHg 98%
06:00 +22°C° 0.2 mm 0 m/s 751 mmHg 97%
07:00 +22°C° 0.2 mm 0 m/s 751 mmHg 96%
08:00 +25°C° 0 mm 0 m/s 752 mmHg 85%
09:00 +27°C° 0 mm 0 m/s 752 mmHg 73%
10:00 +30°C° 0 mm 0 m/s 752 mmHg 62%
11:00 +31°C° 0 mm 0 m/s 751 mmHg 56%
12:00 +32°C° 0 mm 0 m/s 750 mmHg 50%
13:00 +34°C° 0 mm 0 m/s 749 mmHg 45%
14:00 +31°C° 0.1 mm 0 m/s 749 mmHg 56%
15:00 +29°C° 0.1 mm 0 m/s 748 mmHg 66%
16:00 +27°C° 0.1 mm 0 m/s 748 mmHg 77%
17:00 +26°C° 0 mm 0 m/s 748 mmHg 80%
18:00 +25°C° 0 mm 0 m/s 749 mmHg 82%
19:00 +24°C° 0 mm 0 m/s 749 mmHg 85%
20:00 +24°C° 0 mm 0 m/s 749 mmHg 87%
21:00 +26°C° 0 mm 1 m/s 750 mmHg 89%
22:00 +25°C° 0 mm 1 m/s 750 mmHg 92%
23:00 +25°C° 0 mm 1 m/s 750 mmHg 93%
Mostrar mais

Necessitamos do seu Consentimento

A Meteoprog e os seus Fornecedores de Serviços podem armazenar e aceder a dados pessoais como cookies, identificadores do dispositivo ou outras tecnologias semelhantes existentes no seu dispositivo e processar estes dados para personalizar conteúdos e anúncios, assim como funcionalidades nas redes sociais e análise de tráfego.

  • Armazenar e/ou aceder a informações no seu dispositivo

    Os cookies, identificadores do dispositivo ou outras informações podem ser armazenados ou acedidos no seu dispositivo, para os fins acima indicados.

  • Anúncios e conteúdos personalizados, medição de anúncios e conteúdos, dados sobre o público-alvo e desenvolvimento de produtos

    Os anúncios e os conteúdos podem ser personalizados com base num perfil. Podem ser adicionados dados adicionais para uma maior personalização dos anúncios e dos conteúdos. A eficácia dos anúncios e dos conteúdos pode ser medida. Podem ser obtidas informações sobre o público que visualizou os anúncios e os conteúdos. Estes dados podem ser usados para desenvolver ou melhorar sistemas, softwares ou a experiência do utilizador.

Ao clicar em "Eu concordo”, permitirá o uso de cookies, identificadores do dispositivo e web beacons mencionados ou outras tecnologias semelhantes. As configurações do navegador do seu dispositivo podem ser alteradas.

Para certos fins, podem ser invocados interesses legítimos ao invés de consentimento. Pode ler mais informação sobre este assunto na nossa Política de Privacidade e Cookies.